This demonstration page uses our WeatherBlox Daily Observations layout. Learn more.

41.86663, -103.66717

Hourly Observations for May 9, 2019

Temp ( °F °C ) Dew Point ( °F °C ) Humidity (%) Winds ( mph kmh ) Pressure ( in mb ) Visibility ( mi km ) Precip ( " mm )
12:53 am 00:53 Cloudy 38 3.3 35 1.7 89 89 NNW 3 6 30.18 1022 10 16.09344 0 0
1:27 am 01:27 Cloudy 38 3.3 35 1.7 89 89 NNW 5 7 30.18 1022 10 16.09344 0 0
1:53 am 01:53 Cloudy 38 3.3 36 2.2 93 93 NNW 7 11 30.15 1021 10 16.09344 0 0
2:15 am 02:15 Cloudy 37 3 36 2 93 93 NNW 8 13 30.21 1023 10 16.09344 0 0
2:31 am 02:31 Cloudy 37 2.8 35 1.7 93 93 NNW 7 11 30.21 1023 10 16.09344 0 0
2:53 am 02:53 Cloudy with Light Rain 37 2.8 35 1.7 93 93 NW 7 11 30.15 1021 10 16.09344 0.001 0.001
3:53 am 03:53 Cloudy with Light Rain 37 2.8 36 2.2 96 96 WNW 7 11 30.15 1021 7 11.265408 0.001 0.001
4:53 am 04:53 Cloudy 37 2.8 36 2.2 96 96 WNW 7 11 30.15 1021 10 16.09344 0.001 0.001
5:29 am 05:29 Cloudy with Light Rain 36 2.2 36 2.2 100 100 NW 7 11 30.21 1023 6 9.656064 0.02 0.508
5:53 am 05:53 Cloudy with Light Rain 36 2.2 36 2.2 100 100 NW 6 9 30.15 1021 6 9.656064 0.04 1.016
6:44 am 06:44 Cloudy with Light Rain 37 3 36 2 93 93 WNW 6 9 30.21 1023 4 6.437376 0 0
6:53 am 06:53 Cloudy with Light Rain 37 2.8 36 2.2 96 96 WNW 6 9 30.18 1022 4 6.437376 0.03 0.762
7:04 am 07:04 Cloudy with Light Rain 37 3 36 2 93 93 WNW 5 7 30.21 1023 5 8.04672 0 0
7:22 am 07:22 Cloudy with Light Rain 37 3 36 2 93 93 W 5 7 30.21 1023 6 9.656064 0 0
7:34 am 07:34 Cloudy with Light Rain 38 3.3 37 2.8 97 97 WNW 3 6 30.18 1022 7 11.265408 0.001 0.001
7:41 am 07:41 Cloudy with Light Rain 37 3 37 3 100 100 W 5 7 30.21 1023 6 9.656064 0 0
7:48 am 07:48 Cloudy with Light Rain 37 3 37 3 100 100 WNW 5 7 30.21 1023 6 9.656064 0.01 0.254
7:53 am 07:53 Cloudy with Light Rain 38 3.3 37 2.8 97 97 NW 3 6 30.18 1022 6 9.656064 0.01 0.254
8:51 am 08:51 Cloudy with Light Rain 39 4 37 3 93 93 Calm 30.18 1022 10 16.09344 0.02 0.508
8:53 am 08:53 Cloudy with Light Rain 41 5 38 3.3 89 89 Calm 30.18 1022 10 16.09344 0.03 0.762
9:15 am 09:15 Cloudy 41 5 37 2.8 86 86 Calm 30.18 1022 10 16.09344 0.001 0.001
9:44 am 09:44 Cloudy with Light Rain 41 5 37 3 87 87 Calm 30.21 1023 10 16.09344 0 0
9:53 am 09:53 Cloudy with Light Rain 41 5 38 3.3 89 89 SW 6 9 30.18 1022 9 14.484096 0.001 0.001
10:08 am 10:08 Cloudy with Rain 39 4 37 3 93 93 Calm 30.21 1023 3 4.828032 0 0
10:35 am 10:35 Cloudy with Light Rain 41 5 38 3.3 89 89 SSW 5 7 30.21 1023 5 8.04672 0.02 0.508
10:40 am 10:40 Cloudy with Light Rain 41 5 37 3 87 87 SSW 7 11 30.21 1023 7 11.265408 0 0
10:48 am 10:48 Cloudy with Light Rain 41 5 39 4 93 93 SSW 8 13 30.21 1023 8 12.874752 0.02 0.508
10:53 am 10:53 Cloudy with Light Rain 42 5.6 39 3.9 89 89 S 6 9 30.18 1022 9 14.484096 0.02 0.508
11:09 am 11:09 Cloudy 42 5.6 39 3.9 89 89 SSW 7 11 30.18 1022 10 16.09344 0.001 0.001
11:31 am 11:31 Cloudy with Rain 41 5 37 2.8 86 86 VRB 3 6 30.21 1023 2.5 4.02336 0.01 0.254
11:49 am 11:49 Cloudy with Light Rain 37 3 36 2 93 93 ENE 16 26 30.27 1025 4 6.437376 0.06 1.524
11:53 am 11:53 Cloudy with Light Rain 38 3.3 36 2.2 93 93 ENE 16 26 30.21 1023 4 6.437376 0.06 1.524
12:03 pm 12:03 Cloudy with Light Rain 39 3.9 36 2.2 89 89 ENE 15 24 30.21 1023 5 8.04672 0.001 0.001
12:53 pm 12:53 Cloudy 43 6.1 37 2.8 80 80 E 12 19 30.21 1023 10 16.09344 0.01 0.254
1:01 pm 13:01 Cloudy 44 6.7 37 2.8 76 76 ENE 10 17 30.18 1022 10 16.09344 0 0
1:27 pm 13:27 Cloudy with Light Rain 45 7.2 37 2.8 74 74 ESE 10 17 30.18 1022 10 16.09344 0.001 0.001
1:53 pm 13:53 Cloudy 45 7.2 36 2.2 71 71 E 10 17 30.18 1022 10 16.09344 0.001 0.001
2:53 pm 14:53 Cloudy 46 7.8 37 2.8 71 71 VRB 5 7 30.15 1021 10 16.09344 0 0
3:53 pm 15:53 Cloudy 46 7.8 33 0.6 61 61 Calm 30.15 1021 10 16.09344 0 0
4:53 pm 16:53 Mostly Cloudy 48 8.9 34 1.1 58 58 VRB 3 6 30.12 1020 10 16.09344 0 0
5:53 pm 17:53 Cloudy 47 8.3 32 0 56 56 SE 7 11 30.12 1020 10 16.09344 0 0
6:53 pm 18:53 Cloudy 46 7.8 32 0 58 58 ESE 7 11 30.12 1020 10 16.09344 0 0
7:53 pm 19:53 Cloudy 45 7.2 36 2.2 71 71 S 3 6 30.15 1021 10 16.09344 0 0
8:53 pm 20:53 Cloudy 44 6.7 35 1.7 71 71 SSE 3 6 30.15 1021 10 16.09344 0 0
9:53 pm 21:53 Clear 40 4.4 35 1.7 83 83 undefined N/A 30.18 1022 10 16.09344 0 0
10:53 pm 22:53 Mostly Cloudy 41 5 34 1.1 76 76 Calm 30.18 1022 10 16.09344 0 0
11:53 pm 23:53 Mostly Cloudy 38 3.3 36 2.2 93 93 Calm 30.21 1023 10 16.09344 0 0

Powered by AerisWeather